Weather History for Hazen, ND

Change the Weather History Date:

Saturday, January 18, 2014

  Actual Average (KN60) Record (KN60)
Temperature  
Mean Temperature 32 °F -  
Max Temperature 35 °F 16 °F - (-1)
Min Temperature 30 °F 0 °F - (-1)
Degree Days  
Heating Degree Days 32    
Moisture  
Dew Point 27 °F    
Average Humidity 78    
Maximum Humidity 87    
Minimum Humidity 69    
Precipitation  
Precipitation 0.00 in - - ()
Sea Level Pressure  
Sea Level Pressure 29.85 in    
Wind  
Wind Speed 21 mph (WNW)    
Max Wind Speed 29 mph    
Max Gust Speed 39 mph    
Visibility 10 miles    
Events Rain , Snow    
Averages and records for this station are not official NWS values.
T = Trace of Precipitation, MM = Missing Value Source: NWS Daily Summary

Daily Weather History Graph

Daily Weather History Graph

Search for Another Location

Airport:

Trip Planner

Search our weather history database for the weather conditions in past years. The results will help you decide how hot, cold, wet, or windy it might be!

Date:

Astronomy

Jan. 18, 2014 Rise Set
Actual Time 8:26 AM CST 5:27 PM CST
Civil Twilight 7:52 AM CST 6:01 PM CST
Nautical Twilight 7:14 AM CST 6:39 PM CST
Astronomical Twilight 6:38 AM CST 7:16 PM CST
Moon 8:25 PM CST (1/18) 9:14 AM CST (1/18)
Length of Visible Light 10h 09m
Length of Day
9h 01m
Waning Gibbous, 94% of the Moon is Illuminated
Jan 18
Waning Gibbous
Jan 23
Last Quarter
Jan 30
New
Feb 6
First Quarter
Feb 14
Full

Hourly Weather History & Observations

Time (CST) Temp. Windchill Dew Point Humidity Pressure Visibility Wind Dir Wind Speed Gust Speed Precip Events Conditions
12:15 AM 35.6 °F 23.2 °F 28.4 °F 75% 29.67 in 10.0 mi NW 26.5 mph 36.8 mph N/A   Overcast
12:35 AM 35.6 °F 23.2 °F 28.4 °F 75% 29.66 in 10.0 mi NW 26.5 mph 36.8 mph N/A Rain Light Rain
12:55 AM 35.6 °F 22.7 °F 28.4 °F 75% 29.67 in 9.0 mi NW 28.8 mph 38.0 mph N/A Snow Light Snow
1:15 AM 35.6 °F 22.7 °F 28.4 °F 75% 29.67 in 10.0 mi NW 28.8 mph 35.7 mph N/A   Mostly Cloudy
1:35 AM 35.6 °F 23.0 °F 28.4 °F 75% 29.68 in 10.0 mi NW 27.6 mph 36.8 mph N/A   Overcast
1:55 AM 33.8 °F 20.8 °F 28.4 °F 81% 29.69 in 10.0 mi NW 26.5 mph 38.0 mph N/A   Overcast
2:15 AM 33.8 °F 21.0 °F 28.4 °F 81% 29.70 in 10.0 mi NW 25.3 mph 38.0 mph N/A Snow Light Snow
2:35 AM 35.6 °F 23.2 °F 28.4 °F 75% 29.72 in 10.0 mi NW 26.5 mph 36.8 mph N/A Snow Light Snow
2:55 AM 35.6 °F 23.0 °F 30.2 °F 81% 29.74 in 10.0 mi NW 27.6 mph 39.1 mph N/A   Overcast
3:15 AM 35.6 °F 23.7 °F 28.4 °F 75% 29.75 in 10.0 mi NW 24.2 mph 35.7 mph N/A   Overcast
3:35 AM 35.6 °F 24.0 °F 28.4 °F 75% 29.76 in 10.0 mi NW 23.0 mph 32.2 mph N/A   Overcast
3:55 AM 33.8 °F 20.5 °F 28.4 °F 81% 29.77 in 10.0 mi NNW 27.6 mph 39.1 mph N/A   Overcast
4:15 AM 33.8 °F 20.3 °F 28.4 °F 81% 29.79 in 10.0 mi NNW 28.8 mph 38.0 mph N/A   Scattered Clouds
4:35 AM 33.8 °F 20.3 °F 28.4 °F 81% 29.81 in 10.0 mi NNW 28.8 mph 36.8 mph N/A   Scattered Clouds
4:55 AM 32.0 °F 18.4 °F 28.4 °F 87% 29.82 in 10.0 mi NNW 26.5 mph 33.4 mph N/A   Overcast
5:15 AM 33.8 °F 21.0 °F 28.4 °F 81% 29.84 in 10.0 mi NNW 25.3 mph 33.4 mph N/A   Overcast
5:35 AM 33.8 °F 21.3 °F 28.4 °F 81% 29.85 in 10.0 mi NNW 24.2 mph 34.5 mph N/A   Overcast
5:55 AM 33.8 °F 20.5 °F 28.4 °F 81% 29.87 in 10.0 mi NNW 27.6 mph 34.5 mph N/A   Overcast
6:15 AM 33.8 °F 22.2 °F 28.4 °F 81% 29.88 in 10.0 mi NNW 20.7 mph 31.1 mph N/A   Overcast
6:35 AM 32.0 °F 19.8 °F 28.4 °F 87% 29.90 in 10.0 mi NW 20.7 mph 26.5 mph N/A   Overcast
6:55 AM 32.0 °F 19.5 °F 28.4 °F 87% 29.91 in 10.0 mi NNW 21.9 mph 28.8 mph N/A   Overcast
7:15 AM 32.0 °F 20.8 °F 28.4 °F 87% 29.92 in 10.0 mi NNW 17.3 mph - N/A   Mostly Cloudy
7:35 AM 32.0 °F 19.8 °F 28.4 °F 87% 29.94 in 10.0 mi NNW 20.7 mph 31.1 mph N/A   Overcast
7:55 AM 32.0 °F 22.1 °F 28.4 °F 87% 29.95 in 10.0 mi NNW 13.8 mph 25.3 mph N/A   Overcast
8:15 AM 32.0 °F 19.8 °F 24.8 °F 75% 29.97 in 10.0 mi NNW 20.7 mph 27.6 mph N/A   Overcast
8:35 AM 32.0 °F 21.6 °F 24.8 °F 75% 29.99 in 10.0 mi NNW 15.0 mph 26.5 mph N/A   Overcast
8:55 AM 32.0 °F 23.0 °F 24.8 °F 75% 30.01 in 10.0 mi NNW 11.5 mph - N/A   Overcast
9:15 AM 32.0 °F 22.1 °F 23.0 °F 69% 30.03 in 10.0 mi NNW 13.8 mph 20.7 mph N/A   Overcast
9:35 AM 32.0 °F 21.2 °F 23.0 °F 69% 30.03 in 10.0 mi North 16.1 mph 21.9 mph N/A   Overcast
9:55 AM 30.2 °F 18.9 °F 23.0 °F 75% 30.03 in 10.0 mi NNW 16.1 mph 21.9 mph N/A   Overcast
10:15 AM 30.2 °F 18.5 °F 23.0 °F 75% 30.04 in 10.0 mi NNW 17.3 mph - N/A   Overcast
10:35 AM 30.2 °F 17.8 °F 23.0 °F 75% 30.03 in 10.0 mi North 19.6 mph 27.6 mph N/A   Overcast
10:55 AM 30.2 °F 20.2 °F 24.8 °F 80% 30.05 in 10.0 mi NW 12.7 mph 16.1 mph N/A   Overcast
11:15 AM 32.0 °F 25.6 °F 24.8 °F 75% 30.05 in 10.0 mi NW 6.9 mph - N/A   Overcast
11:35 AM 32.0 °F 23.6 °F 24.8 °F 75% 30.03 in 10.0 mi NW 10.4 mph 16.1 mph N/A   Overcast
11:55 AM 32.0 °F 24.2 °F 24.8 °F 75% 30.03 in 10.0 mi WNW 9.2 mph - N/A   Overcast
12:15 PM 32.0 °F 22.1 °F 24.8 °F 75% 30.02 in 10.0 mi NW 13.8 mph - N/A   Overcast
12:35 PM 32.0 °F 23.0 °F 24.8 °F 75% 30.01 in 10.0 mi WNW 11.5 mph - N/A   Overcast
12:55 PM 32.0 °F 22.1 °F 26.6 °F 80% 30.00 in 10.0 mi WNW 13.8 mph 23.0 mph N/A   Overcast
1:15 PM 32.0 °F 23.6 °F 24.8 °F 75% 30.00 in 10.0 mi West 10.4 mph - N/A   Mostly Cloudy
1:35 PM 32.0 °F 22.1 °F 26.6 °F 80% 29.99 in 10.0 mi West 13.8 mph - N/A   Partly Cloudy
1:55 PM 32.0 °F 23.0 °F 26.6 °F 80% 29.98 in 10.0 mi West 11.5 mph - N/A   Clear
2:15 PM 33.8 °F 23.9 °F 26.6 °F 75% 29.97 in 10.0 mi West 15.0 mph 18.4 mph N/A   Clear
2:35 PM 35.6 °F 25.9 °F 26.6 °F 70% 29.96 in 10.0 mi West 16.1 mph 20.7 mph N/A   Clear
2:55 PM 35.6 °F 25.9 °F 26.6 °F 70% 29.95 in 10.0 mi West 16.1 mph 20.7 mph N/A   Clear
3:15 PM 35.6 °F 25.9 °F 26.6 °F 70% 29.94 in 10.0 mi West 16.1 mph 23.0 mph N/A   Partly Cloudy
3:35 PM 35.6 °F 26.6 °F 26.6 °F 70% 29.93 in 10.0 mi West 13.8 mph - N/A   Clear
3:55 PM 35.6 °F 27.1 °F 26.6 °F 70% 29.93 in 10.0 mi West 12.7 mph - N/A   Clear
4:15 PM 35.6 °F 26.6 °F 26.6 °F 70% 29.92 in 10.0 mi West 13.8 mph 18.4 mph N/A   Clear
4:35 PM 35.6 °F 27.1 °F 26.6 °F 70% 29.91 in 10.0 mi WSW 12.7 mph 18.4 mph N/A   Clear
4:55 PM 35.6 °F 27.1 °F 26.6 °F 70% 29.89 in 10.0 mi SW 12.7 mph - N/A   Clear
5:15 PM 33.8 °F 25.8 °F 26.6 °F 75% 29.87 in 10.0 mi WSW 10.4 mph - N/A   Clear
5:35 PM 33.8 °F 24.8 °F 26.6 °F 75% 29.86 in 10.0 mi SW 12.7 mph - N/A   Clear
5:55 PM 32.0 °F 22.5 °F 26.6 °F 80% 29.85 in 10.0 mi WSW 12.7 mph 19.6 mph N/A   Clear
6:15 PM 32.0 °F 24.2 °F 26.6 °F 80% 29.85 in 10.0 mi SW 9.2 mph - N/A   Clear
6:35 PM 32.0 °F 23.0 °F 26.6 °F 80% 29.84 in 10.0 mi SW 11.5 mph - N/A   Clear
6:55 PM 32.0 °F 23.0 °F 26.6 °F 80% 29.82 in 10.0 mi SW 11.5 mph - N/A   Clear
7:15 PM 32.0 °F 21.2 °F 26.6 °F 80% 29.81 in 10.0 mi WSW 16.1 mph - N/A   Clear
7:35 PM 32.0 °F 22.1 °F 26.6 °F 80% 29.80 in 10.0 mi WSW 13.8 mph - N/A   Clear
7:55 PM 32.0 °F 20.8 °F 26.6 °F 80% 29.77 in 10.0 mi WSW 17.3 mph - N/A   Clear
8:15 PM 32.0 °F 22.1 °F 26.6 °F 80% 29.77 in 10.0 mi WSW 13.8 mph - N/A   Clear
8:35 PM 32.0 °F 22.5 °F 26.6 °F 80% 29.75 in 10.0 mi WSW 12.7 mph - N/A   Clear
8:55 PM 32.0 °F 22.1 °F 26.6 °F 80% 29.73 in 10.0 mi WSW 13.8 mph - N/A   Clear
9:15 PM 32.0 °F 24.2 °F 26.6 °F 80% 29.72 in 10.0 mi WSW 9.2 mph - N/A   Clear
9:35 PM 32.0 °F 22.1 °F 26.6 °F 80% 29.71 in 10.0 mi WSW 13.8 mph - N/A   Clear
9:55 PM 32.0 °F 20.8 °F 26.6 °F 80% 29.70 in 10.0 mi West 17.3 mph 21.9 mph N/A   Clear
10:15 PM 32.0 °F 20.8 °F 26.6 °F 80% 29.70 in 10.0 mi WSW 17.3 mph 21.9 mph N/A   Clear
10:35 PM 32.0 °F 20.8 °F 26.6 °F 80% 29.68 in 10.0 mi WSW 17.3 mph - N/A   Clear
10:55 PM 32.0 °F 23.0 °F 26.6 °F 80% 29.67 in 10.0 mi West 11.5 mph - N/A   Clear
11:15 PM 32.0 °F 24.2 °F 26.6 °F 80% 29.67 in 10.0 mi WSW 9.2 mph - N/A   Clear
11:35 PM 32.0 °F 22.5 °F 26.6 °F 80% 29.66 in 10.0 mi WSW 12.7 mph - N/A   Clear
11:55 PM 32.0 °F 22.5 °F 26.6 °F 80% 29.65 in 10.0 mi WSW 12.7 mph - N/A   Clear